CZ-4 DEB, 27676

Orbit data source: Space-Track

CZ-4 DEB, 27676 is space debris in SSO originally from a launch on Thu, 14 Oct 1999 UTC launched from the Taiyaun Space Center, China (TSC). Debris objects in space refer to the collection of defunct objects orbiting the Earth. Examples of debris include non-operational satellites, rocket bodies, and fragments generated from explosions, collisions, or faulty payload assembly.

Loading next visibility...
Identifier
27676, 1999-057MQ
Orbit
SSO
Country
Flag of CNCN / PRC
Related business
Manufacturer
Unknown
Mission
Spacecraft
Bus & Motor
Unknown
Mass
Unknown
Launch date (UTC)
1999-10-14 (27 years ago)
Launch vehicle
Unknown
Launch site
Taiyaun Space Center, China (TSC)
Object type
Payload
Rocket body
Debris
Shape & HBR
Unknown shape, 0.1 m
Radar Cross Section
Small (<0.1 m²)

Expand to show TLE details & history
Last TLE update: 6 days ago

TLE from 6 days ago
0 CZ-4 DEB
1 27676U 99057MQ  26166.13040184  .00000558  00000-0  17750-3 0  9991
2 27676  98.6501 227.9818 0098081 257.9495 101.0689 14.41247917226389
Epoch: 2026-06-15T03:07Z
TLE epoch observation values (Epoch: 2026-06-15T03:07:46.718Z)
Latitude
-0.00001°
Longitude
-82.38406°
Altitude
771.416 km
Speed
7.461 km/s
True Right ascension
15h 11m 55s
True Declination
0° 00' 00"
Sunlit
Object was in full shadow at epoch
Visualization orbit readout
Latitude
Unknown
Longitude
Unknown
Altitude
Unknown
Speed
Unknown
Apparent Right ascension
Unknown
Apparent Declination
Unknown
Sunlit
N/A
Visualization observer readout
Local Sidereal Time
16:10:27
Azimuth
Unknown
Elevation
Unknown
Doppler factor
Unknown
Orbital elements
Apogee altitude
821.434 km
Perigee altitude
681.577 km
Semi-major axis
7,129.642 km
Eccentricity
0.00981
Inclination
98.6501°
RAAN
227.9818°
Arg. of periapsis
257.9495°
True anomaly
102.16926°
Mean anomaly
101.0689°
Eccentric anomaly
101.61935°
Mean motion
3.6053 °/min
Orbital period
99.85 mins
BSTAR
0.0001775
Loading maneuver chart data...
Computing Atmospheric mass density...

Documentation

Showing up to 5 results
|